This is the latest recevied weather packets stored in our database for station/object NR0A-4. If no packets are shown the sender has not sent any weather packets the latest 10 day(s).
| Time | Temp. | Humidity | Pressure | Rain* | Wind** | Luminosity | Snow |
|---|---|---|---|---|---|---|---|
| 1787858705 | 28.33° C | 48% | 1020 hPa | 0 mm | - | 754 W/m² | - |
| 1787858404 | 28.33° C | 48% | 1020.2 hPa | 0 mm | - | 756 W/m² | - |
| 1787858105 | 27.78° C | 50% | 1020.4 hPa | 0 mm | - | 766 W/m² | - |
| 1787857805 | 27.22° C | 53% | 1020.4 hPa | 0 mm | - | 308 W/m² | - |
| 1787857505 | 27.22° C | 50% | 1020.4 hPa | 0 mm | - | 830 W/m² | - |
| 1787857204 | 27.22° C | 52% | 1020.4 hPa | 0 mm | - | 773 W/m² | - |
| 1787856905 | 27.22° C | 49% | 1020.5 hPa | 0 mm | - | 775 W/m² | - |
| 1787856605 | 27.22° C | 51% | 1020.5 hPa | 0 mm | - | 777 W/m² | - |
| 1787856304 | 27.22° C | 51% | 1020.6 hPa | 0 mm | - | 780 W/m² | - |
| 1787856011 | 27.22° C | 51% | 1020.6 hPa | 0 mm | - | 782 W/m² | - |
| 1787855705 | 27.22° C | 54% | 1020.7 hPa | 0 mm | - | 788 W/m² | - |
| 1787855404 | 27.22° C | 53% | 1020.8 hPa | 0 mm | - | 779 W/m² | - |
| 1787855104 | 27.22° C | 51% | 1020.7 hPa | 0 mm | - | 782 W/m² | - |
| 1787854805 | 27.22° C | 53% | 1020.7 hPa | 0 mm | - | 775 W/m² | - |
| 1787854504 | 27.22° C | 52% | 1020.7 hPa | 0 mm | - | 779 W/m² | - |
| 1787854205 | 27.22° C | 53% | 1020.7 hPa | 0 mm | - | 775 W/m² | - |
| 1787853904 | 27.22° C | 52% | 1021 hPa | 0 mm | - | 773 W/m² | - |
| 1787853604 | 26.67° C | 54% | 1020.9 hPa | 0 mm | - | 773 W/m² | - |
| 1787853304 | 26.67° C | 53% | 1020.9 hPa | 0 mm | - | 780 W/m² | - |
| 1787853005 | 26.67° C | 54% | 1021.1 hPa | 0 mm | - | 779 W/m² | - |
| 1787852704 | 26.67° C | 51% | 1021.1 hPa | 0 mm | - | 773 W/m² | - |
| 1787852405 | 26.67° C | 55% | 1021.2 hPa | 0 mm | - | 763 W/m² | - |
| 1787852104 | 26.67° C | 57% | 1021.3 hPa | 0 mm | - | 756 W/m² | - |
| 1787851804 | 26.67° C | 55% | 1021.3 hPa | 0 mm | - | 752 W/m² | - |
| 1787851504 | 26.67° C | 56% | 1021.3 hPa | 0 mm | - | 747 W/m² | - |
* Rain latest hour (hover to see other rain measurements)
** Current wind speed in m/s (hover to see current wind gust speed)